Location: Essen
(51.4609°N, 7.0127°E)
Time: 01:04:56
(UTC+01:00)

ISS - Pass Details

Date: 14 November 2017
Orbit: 402 x 407 km, 51.6° (Epoch: 24 November)

Event Time Altitude Azimuth Distance (km) Brightness Sun altitude
Exits shadow 05:45:14 41° 197° (SSW) 594 -3.2 -19.0°
Drops below altitude 10° 05:48:11 10° 133° (SE) 1,452 -0.3 -18.5°
Sets 05:50:19 0° 126° (SE) 2,309 1.1 -18.2°
